[[{"header":{"parameterUnit":"m.s-1","parameterCategory":1,"la1":30.2991,"la2":30.254,"lo1":-89.0895,"lo2":-89.0444,"dy":0.0017,"dx":0.0017,"nx":28,"ny":28,"refTime":"2024-06-08T03:00:00:Z","depth":0,"parameterNumber":2,"parameterNumberName":"U-component_of_WINDS"},"data":[0,0,0,0,0,0,0,0,0,0,0,0,0,0,0,0,0,0,0,0,0,0,0,0,0,0,0,0,0,0,0,0,0,0,0,0,0,0,0,0,0,0,0,0,0,0,0,0,0,0,0,0,0,0,0,0,0,0,1.4489,1.449,0,1.455,1.4551,1.4552,1.4542,1.4541,1.454,1.4539,1.4603,1.4606,1.4608,0,0,0,0,0,0,0,0,0,0,0,0,0,1.4365,1.4367,1.4489,1.449,1.449,1.455,1.4551,1.4552,1.4542,1.4541,1.454,1.4539,1.4602,1.4605,1.4608,0,0,0,0,0,0,0,0,0,0,0,0,0,1.4421,1.4368,1.4489,1.4493,1.4494,1.455,1.4551,1.4552,1.4543,1.4541,1.4539,1.4538,1.4601,1.4605,1.4609,1.4665,0,0,1.4621,1.4623,0,0,0,0,0,0,0,0,1.4418,1.4426,1.4492,1.4493,1.4494,1.4537,1.453,1.459,1.4543,1.4524,1.4539,1.4537,1.4582,1.4588,1.4603,1.4668,1.4671,1.4622,1.4624,1.4626,1.4627,0,0,0,0,0,0,0,1.4414,1.4423,1.4513,1.4493,1.4494,1.4492,1.4498,1.4542,1.4561,1.4526,1.4525,1.4532,1.4583,1.4599,1.4604,1.4672,1.4621,1.4625,1.4627,1.4629,1.4786,1.4788,0,0,0,0,0,0,1.4409,1.442,1.4511,1.4515,1.4451,1.4495,1.4503,1.4525,1.4561,1.4565,1.4534,1.4532,1.4593,1.46,1.4606,1.4675,1.4626,1.4629,1.4632,1.4784,1.4787,1.4788,0,0,0,0,0,0,1.4406,1.4417,1.4509,1.4467,1.4479,1.4499,1.4524,1.4527,1.4543,1.4567,1.457,1.4547,1.4592,1.4601,1.465,1.4677,1.4631,1.4635,1.4782,1.4785,1.4788,1.4811,0,0,0,0,0,0,1.4403,1.4416,1.4438,1.4468,1.4481,1.4552,1.4526,1.4529,1.455,1.4548,1.458,1.4584,1.4591,1.4645,1.4654,1.4681,1.4638,1.478,1.4784,1.4787,1.4808,1.4815,1.482,0,0,0,0,0,1.4399,1.4443,1.4439,1.445,1.4508,1.4553,1.4561,1.4568,1.4552,1.4574,1.4589,1.4583,1.4672,1.465,1.4661,1.4689,1.4778,1.4783,1.4786,1.4806,1.4813,1.482,0,0,0,0,0,0,1.4415,1.4447,1.4443,1.4498,1.4523,1.4552,1.4579,1.4576,1.4606,1.4603,1.4612,1.4619,1.4669,1.4684,1.4659,1.4745,1.4723,1.4729,1.4734,1.4741,1.4747,1.4742,1.4641,0,0,0,0,0,1.4425,1.4459,1.4484,1.4531,1.4543,1.4559,1.4579,1.4582,1.4609,1.4619,1.4638,1.4664,1.4698,1.4721,1.4753,1.481,1.4817,1.4835,1.4841,1.4846,1.4851,1.4882,1.4891,1.4801,1.4801,1.4801,0,0,1.4447,1.4468,1.4489,1.4534,1.4554,1.4589,1.4568,1.4606,1.4632,1.4625,1.4673,1.4688,1.4718,1.4771,1.4796,1.4785,1.4877,1.4851,1.4854,1.4857,1.4887,1.4896,1.4903,1.4804,1.4804,1.4803,0,0,1.4503,1.4523,1.4563,1.4583,1.4613,1.4623,1.4633,1.4662,1.4671,1.472,1.4715,1.4746,1.4805,1.4826,1.4844,1.4908,1.4904,1.4918,1.4949,1.4979,1.4986,1.4992,1.5015,1.5023,1.4924,1.4924,1.4924,0,1.4526,1.4578,1.4584,1.4623,1.4643,1.4638,1.4679,1.4698,1.4737,1.4752,1.4739,1.4812,1.4831,1.489,1.4905,1.492,1.4932,1.4915,1.4984,1.4991,1.4997,1.5018,1.5027,1.4926,1.4925,1.4925,1.4925,0,1.4605,1.4641,1.467,1.4707,1.4731,1.477,1.4783,1.4806,1.4807,1.4818,1.4867,1.4891,1.4928,1.4942,1.4943,1.5,1.4993,1.4982,1.496,1.5007,1.5027,1.5036,1.4928,1.4927,1.4927,1.4926,0,0,1.4674,1.4714,1.4725,1.4742,1.4774,1.4802,1.4841,1.4877,1.4897,1.4924,1.4957,1.5006,1.4996,1.5017,1.5021,1.5047,1.5097,1.5034,1.5034,1.5045,1.5161,1.5168,1.5178,1.5093,1.5095,1.5096,1.5158,0,1.4734,1.4803,1.4809,1.4871,1.4905,1.49,1.4934,1.4958,1.497,1.5,1.5013,1.5047,1.5032,1.5044,1.507,1.5085,1.512,1.5081,1.5125,1.5126,1.5117,1.5189,1.5198,1.5255,1.5166,1.5168,1.5169,0,1.4813,1.4842,1.4907,1.4935,1.4949,1.4979,1.5012,1.5041,1.5068,1.5074,1.5097,1.5098,1.5138,1.5114,1.5169,1.5143,1.5161,1.5171,1.5173,1.5178,1.515,1.5196,1.5273,1.5282,1.5181,1.518,1.5179,0,1.4857,1.4913,1.4959,1.4973,1.5006,1.5028,1.5043,1.5068,1.5089,1.5118,1.5131,1.5165,1.5183,1.5209,1.5218,1.52,1.5273,1.525,1.528,1.528,1.5296,1.5295,1.5378,1.5308,1.5308,1.5307,1.5307,0,1.4924,1.4964,1.4979,1.5007,1.5052,1.5059,1.5103,1.5117,1.5139,1.517,1.5168,1.5197,1.5208,1.5238,1.5246,1.5291,1.5299,1.5306,1.5307,1.5306,1.5305,1.5318,1.5315,1.531,1.5309,1.5309,1.5308,0,1.4981,1.4993,1.5043,1.507,1.5077,1.5109,1.5132,1.516,1.5171,1.521,1.5219,1.5237,1.5273,1.5285,1.5328,1.5333,1.5386,1.5384,1.5377,1.5377,1.5407,1.5404,1.5501,1.5514,1.5435,1.5436,1.5436,0,1.5023,1.5053,1.5083,1.5104,1.5119,1.5153,1.5174,1.5182,1.5204,1.5236,1.526,1.5295,1.5324,1.5382,1.5399,1.5432,1.5431,1.5463,1.5436,1.5434,1.5432,1.543,1.5433,1.5468,1.5469,1.547,1.547,0,1.5095,1.5099,1.513,1.5163,1.5188,1.5214,1.5239,1.5256,1.5268,1.5293,1.5329,1.5352,1.5396,1.5432,1.5465,1.5481,1.5478,1.5478,1.5487,1.5486,1.5481,1.5484,1.5391,1.5476,1.5475,1.5475,1.5475,1.5474,1.5146,1.5173,1.5198,1.5232,1.5252,1.5275,1.5302,1.5316,1.5347,1.5384,1.5386,1.5426,1.5451,1.5497,1.5514,1.5545,1.5536,1.5548,1.5552,1.5555,1.5557,1.5476,1.5551,1.5551,1.5551,1.555,1.555,0,1.5218,1.5234,1.5266,1.5301,1.5327,1.5321,1.5349,1.5372,1.5406,1.543,1.5459,1.5501,1.5535,1.5554,1.5588,1.5609,1.5609,1.5618,1.5617,1.562,1.5563,1.5552,1.5618,1.5618,1.5618,1.5618,1.5618,1.5618,1.5259,1.5304,1.5312,1.5366,1.5382,1.5421,1.5437,1.5458,1.5477,1.5524,1.5553,1.5565,1.5587,1.5622,1.5653,1.5658,1.5671,1.5681,1.5685,1.5631,1.5624,1.5618,1.5607,1.5684,1.5684,1.5739,1.574,1.574]},{"header":{"parameterUnit":"m.s-1","parameterCategory":1,"la1":30.2991,"la2":30.254,"lo1":-89.0895,"lo2":-89.0444,"dy":0.0017,"dx":0.0017,"nx":28,"ny":28,"refTime":"2024-06-08T03:00:00:Z","depth":0,"parameterNumber":3,"parameterNumberName":"V-component_of_WINDS"},"data":[0,0,0,0,0,0,0,0,0,0,0,0,0,0,0,0,0,0,0,0,0,0,0,0,0,0,0,0,0,0,0,0,0,0,0,0,0,0,0,0,0,0,0,0,0,0,0,0,0,0,0,0,0,0,0,0,0,0,2.8993,2.8993,0,2.897,2.897,2.897,2.8998,2.8999,2.9,2.9001,2.8972,2.897,2.8968,0,0,0,0,0,0,0,0,0,0,0,0,0,2.9055,2.9054,2.8993,2.8993,2.8993,2.897,2.897,2.897,2.8998,2.8999,2.9001,2.9002,2.8972,2.897,2.8968,0,0,0,0,0,0,0,0,0,0,0,0,0,2.903,2.9053,2.8993,2.9004,2.9005,2.897,2.897,2.897,2.8998,2.8999,2.9001,2.9002,2.8973,2.8971,2.8968,2.892,0,0,2.896,2.8959,0,0,0,0,0,0,0,0,2.9031,2.9027,2.9003,2.9003,2.9004,2.8989,2.8981,2.8953,2.8997,2.9,2.9001,2.9003,2.8976,2.8973,2.8965,2.8918,2.8917,2.896,2.8958,2.8957,2.8956,0,0,0,0,0,0,0,2.9033,2.9028,2.8984,2.9002,2.9003,2.9008,2.9006,2.8976,2.8979,2.9,2.9002,2.8999,2.8976,2.8968,2.8965,2.8917,2.896,2.8957,2.8956,2.8955,2.8826,2.8824,0,0,0,0,0,0,2.9034,2.903,2.8985,2.8983,2.9022,2.9006,2.9004,2.8992,2.898,2.8979,2.8998,2.9001,2.8971,2.8968,2.8964,2.8904,2.8957,2.8954,2.8953,2.8828,2.8825,2.8823,0,0,0,0,0,0,2.9035,2.903,2.8986,2.9007,2.9002,2.9003,2.899,2.8991,2.8982,2.8978,2.8978,2.8989,2.8972,2.8967,2.893,2.8903,2.8953,2.8951,2.883,2.8827,2.8824,2.8786,0,0,0,0,0,0,2.9037,2.903,2.9013,2.9007,2.9001,2.8954,2.8988,2.8989,2.8978,2.8981,2.8969,2.8969,2.8973,2.8934,2.8927,2.8901,2.8949,2.8832,2.8828,2.8825,2.8789,2.8782,2.8776,0,0,0,0,0,2.9039,2.9003,2.9012,2.9007,2.898,2.8953,2.8949,2.8957,2.8976,2.8958,2.8955,2.8969,2.8908,2.893,2.8923,2.8895,2.8834,2.8829,2.8825,2.8792,2.8783,2.8776,0,0,0,0,0,0,2.9005,2.9002,2.9013,2.8974,2.8963,2.8958,2.8935,2.8947,2.893,2.8934,2.8942,2.8939,2.8899,2.8893,2.8918,2.8846,2.8874,2.8868,2.8851,2.8842,2.8836,2.8836,2.8946,0,0,0,0,0,2.8993,2.8973,2.8971,2.8936,2.8931,2.8934,2.8922,2.8929,2.8918,2.8913,2.8908,2.8895,2.8872,2.8857,2.8837,2.8789,2.8785,2.8766,2.8759,2.8754,2.8748,2.8719,2.871,2.881,2.881,2.881,0,0,2.8967,2.8963,2.895,2.8929,2.8922,2.8899,2.893,2.8905,2.8887,2.8909,2.8873,2.8869,2.8854,2.8811,2.8792,2.8805,2.872,2.8749,2.8744,2.8741,2.8714,2.8705,2.8696,2.8807,2.8808,2.8808,0,0,2.8909,2.8905,2.8875,2.8867,2.8857,2.8859,2.8851,2.8844,2.8842,2.8807,2.8822,2.88,2.8762,2.8751,2.874,2.8676,2.8687,2.8669,2.8632,2.8604,2.8596,2.8589,2.8563,2.8554,2.8664,2.8663,2.8663,0,2.8878,2.8846,2.8857,2.883,2.8819,2.884,2.8808,2.88,2.8782,2.8773,2.8789,2.874,2.8732,2.8685,2.867,2.8661,2.865,2.8669,2.8597,2.859,2.8584,2.8559,2.855,2.8661,2.8661,2.8662,2.8662,0,2.8807,2.8784,2.876,2.8744,2.8731,2.8701,2.8706,2.8691,2.8698,2.8698,2.866,2.8652,2.8628,2.8618,2.8625,2.8571,2.8579,2.8596,2.8624,2.8572,2.8548,2.8539,2.8658,2.8658,2.8659,2.866,0,0,2.8725,2.8715,2.8706,2.8698,2.8688,2.8669,2.8639,2.8619,2.8604,2.8591,2.8564,2.8531,2.8546,2.8534,2.8539,2.8515,2.8461,2.8534,2.8534,2.8519,2.8397,2.8383,2.8372,2.847,2.8468,2.8467,2.8398,0,2.8664,2.8615,2.8624,2.8575,2.8552,2.8571,2.8545,2.8534,2.8533,2.8511,2.8509,2.8485,2.8508,2.85,2.8477,2.8473,2.8436,2.8478,2.8441,2.844,2.8442,2.8361,2.8346,2.8281,2.8389,2.8388,2.8386,0,2.8587,2.8572,2.8521,2.8512,2.8503,2.848,2.846,2.8441,2.8428,2.8428,2.8414,2.8423,2.8391,2.8421,2.8374,2.8402,2.8388,2.8383,2.8381,2.8375,2.8408,2.835,2.8261,2.825,2.8373,2.8374,2.8375,0,2.8528,2.8496,2.846,2.8453,2.8443,2.8426,2.842,2.8409,2.8396,2.8378,2.8368,2.8346,2.8333,2.8315,2.8317,2.834,2.8269,2.8299,2.8265,2.8265,2.8247,2.8248,2.8152,2.8243,2.8243,2.8243,2.8243,0,2.8458,2.8425,2.8434,2.8412,2.8375,2.8385,2.8347,2.8344,2.8333,2.8309,2.8324,2.83,2.8306,2.8282,2.8284,2.8243,2.8237,2.8235,2.8235,2.8232,2.8232,2.822,2.8224,2.824,2.8241,2.8241,2.8242,0,2.8386,2.8391,2.8353,2.8347,2.8345,2.8317,2.8311,2.8288,2.8289,2.8257,2.825,2.8249,2.8221,2.8222,2.819,2.8191,2.814,2.8147,2.8144,2.8145,2.8109,2.8112,2.8,2.7985,2.8089,2.8088,2.8087,0,2.834,2.8315,2.8306,2.8292,2.8286,2.8263,2.8249,2.8257,2.8241,2.8224,2.8203,2.8177,2.8156,2.8109,2.8104,2.8079,2.8083,2.8046,2.8079,2.8076,2.8079,2.8079,2.8075,2.8038,2.8037,2.8036,2.8036,0,2.8256,2.8259,2.824,2.8221,2.8204,2.8189,2.8175,2.8162,2.8168,2.8149,2.8122,2.8106,2.8073,2.8045,2.8021,2.8013,2.8023,2.8026,2.8016,2.8011,2.8009,2.8007,2.8124,2.8028,2.8028,2.8029,2.8029,2.803,2.8193,2.8171,2.8162,2.8139,2.813,2.8116,2.8094,2.8092,2.807,2.8045,2.8051,2.8019,2.8004,2.7973,2.7962,2.7935,2.7948,2.7934,2.793,2.7926,2.7921,2.8016,2.7931,2.7931,2.7931,2.7931,2.7932,0,2.8108,2.8103,2.8082,2.8062,2.8043,2.8059,2.8044,2.8026,2.7998,2.7985,2.7964,2.7931,2.7904,2.7897,2.787,2.7849,2.7853,2.7842,2.7842,2.7839,2.7912,2.7922,2.7839,2.7839,2.7839,2.7839,2.7839,2.7839,2.8061,2.8024,2.8026,2.7984,2.7978,2.7948,2.7938,2.7924,2.7913,2.7876,2.7854,2.7851,2.7838,2.7811,2.7785,2.7784,2.7772,2.7757,2.7757,2.7825,2.7834,2.7843,2.7852,2.7755,2.7755,2.7686,2.7685,2.7684]}]]